Date String (YYYY-MM-DD hh:mm:ss) UTC,Instrument flags,absolute air pressure of the measurement (hPa),sample flow rate (lpm),inlet stack bypass flow (lpm),air temperature of the measurement (°C),ambient temperature measured by the external sensor (°C),aerosol sample conditioner tube jacket temperature (°C),OPC LED temperature (°C),internal box temperature (°C),relative humidity of the measurement (%),span deviation,mass concentration of particles derived from Lorenz-Mie calculation of OPC scattering (μg/m³),mass concentration of particles derived from Lorenz-Mie calculation of OPC scattering (μg/m³),mass concentration of particles derived from Lorenz-Mie calculation of OPC scattering (μg/m³)
DateTimeUTC,F1_M11,P_M11,Q1_M11,Q2_M11,T1_M11,T2_M11,T3_M11,T4_M11,T5_M11,U1_M11,ZSPAN_M11,X2_M11,X0_M11,X1_M11
2023-11-08 09:00:00,SystemResetWarning,0825.3,5.00,000.00,027.8,026.7,000.0,036.2,029.2,15.0,0000.0,0003.56,0010.88,0002.28
2023-11-08 09:01:00,SystemResetWarning,0825.3,5.00,000.00,027.8,026.7,000.0,036.2,029.2,15.0,0000.0,0003.50,0010.44,0002.26
2023-11-08 09:02:00,SystemResetWarning,0825.4,5.00,000.00,027.8,026.7,000.0,036.2,029.2,15.0,0000.0,0003.51,0011.37,0002.26
2023-11-08 09:03:00,SystemResetWarning,0825.4,5.00,000.00,027.8,026.7,000.0,036.2,029.2,15.0,0000.0,0003.51,0011.99,0002.26
2023-11-08 09:04:00,SystemResetWarning,0825.3,5.00,000.00,027.8,026.7,000.0,036.2,029.2,15.1,0000.0,0003.53,0012.43,0002.28
2023-11-08 09:05:00,SystemResetWarning,0825.3,5.00,000.00,027.8,026.7,000.0,036.2,029.1,15.2,0000.0,0003.53,0012.21,0002.31
2023-11-08 09:06:00,SystemResetWarning,0825.3,5.00,000.00,027.7,026.7,000.0,036.2,029.1,15.3,0000.0,0003.52,0012.47,0002.33
2023-11-08 09:07:00,SystemResetWarning,0825.2,5.00,000.00,027.7,026.7,000.0,036.2,029.1,15.4,0000.0,0003.55,0012.92,0002.35
2023-11-08 09:08:00,SystemResetWarning,0825.2,5.00,000.00,027.7,026.7,000.0,036.2,029.1,15.4,0000.0,0003.60,0013.07,0002.37
2023-11-08 09:09:00,SystemResetWarning,0825.2,5.00,000.00,027.7,026.7,000.0,036.2,029.1,15.3,0000.0,0003.67,0012.55,0002.40
2023-11-08 09:10:00,SystemResetWarning,0825.2,5.00,000.00,027.7,026.7,000.0,036.2,029.2,15.2,0000.0,0003.69,0013.43,0002.44
2023-11-08 09:11:00,SystemResetWarning,0825.3,5.00,000.00,027.7,026.6,000.0,036.2,029.1,15.2,0000.0,0003.73,0013.75,0002.48
2023-11-08 09:12:00,SystemResetWarning,0825.3,4.98,000.00,027.7,026.6,000.0,036.2,029.1,15.4,0000.0,0003.77,0013.58,0002.52
2023-11-08 09:13:00,SystemResetWarning,0825.4,5.01,000.00,027.7,026.6,000.0,036.2,029.1,15.4,0000.0,0003.80,0012.48,0002.57
2023-11-08 09:14:00,SystemResetWarning,0825.4,5.02,000.00,027.7,026.6,000.0,036.2,029.1,15.3,0000.0,0003.80,0012.30,0002.59
2023-11-08 09:15:00,SystemResetWarning,0825.4,5.00,000.00,027.7,026.6,000.0,036.2,029.0,14.9,0000.0,0003.80,0012.28,0002.59
2023-11-08 09:16:00,SystemResetWarning,0825.3,4.99,000.00,027.7,026.6,000.0,036.1,029.1,14.9,0000.0,0003.81,0012.63,0002.60
2023-11-08 09:17:00,SystemResetWarning,0825.3,4.99,000.00,027.7,026.6,000.0,036.1,029.1,14.7,0000.0,0003.83,0012.71,0002.60
2023-11-08 09:18:00,SystemResetWarning,0825.3,5.01,000.00,027.7,026.6,000.0,036.1,029.1,14.8,0000.0,0003.82,0012.56,0002.60
2023-11-08 09:19:00,SystemResetWarning,0825.3,5.01,000.00,027.7,026.6,000.0,036.1,029.1,14.8,0000.0,0003.75,0013.70,0002.57
2023-11-08 09:20:00,SystemResetWarning,0825.3,5.00,000.00,027.7,026.6,000.0,036.1,029.1,14.8,0000.0,0003.69,0014.25,0002.52
2023-11-08 09:21:00,SystemResetWarning,0825.3,5.00,000.00,027.7,026.5,000.0,036.1,029.1,14.8,0000.0,0003.66,0014.75,0002.48
2023-11-08 09:22:00,SystemResetWarning,0825.3,5.00,000.00,027.7,026.5,000.0,036.1,029.1,14.9,0000.0,0003.66,0014.84,0002.44
2023-11-08 09:23:00,SystemResetWarning,0825.3,4.99,000.00,027.7,026.5,000.0,036.1,029.0,14.9,0000.0,0003.61,0014.93,0002.39
2023-11-08 09:24:00,SystemResetWarning,0825.3,5.00,000.00,027.7,026.5,000.0,036.1,029.0,14.8,0000.0,0003.57,0015.29,0002.35
2023-11-08 09:25:00,SystemResetWarning,0825.3,5.01,000.00,027.7,026.5,000.0,036.1,029.0,14.7,0000.0,0003.54,0014.97,0002.31
2023-11-08 09:26:00,SystemResetWarning,0825.3,5.01,000.00,027.6,026.5,000.0,036.1,029.0,14.7,0000.0,0003.54,0014.43,0002.28
2023-11-08 09:27:00,SystemResetWarning,0825.4,5.01,000.00,027.7,026.5,000.0,036.1,029.0,14.7,0000.0,0003.54,0014.06,0002.23
2023-11-08 09:28:00,SystemResetWarning,0825.4,5.00,000.00,027.6,026.5,000.0,036.1,029.0,14.7,0000.0,0003.52,0013.50,0002.20
2023-11-08 09:29:00,SystemResetWarning,0825.4,5.00,000.00,027.6,026.5,000.0,036.1,029.0,14.7,0000.0,0003.50,0013.12,0002.18
2023-11-08 09:30:00,SystemResetWarning,0825.4,5.00,000.00,027.6,026.5,000.0,036.1,029.0,14.7,0000.0,0003.47,0012.17,0002.16
2023-11-08 09:31:00,SystemResetWarning,0825.4,5.00,000.00,027.6,026.5,000.0,036.1,029.0,14.8,0000.0,0003.45,0011.43,0002.15
2023-11-08 09:32:00,SystemResetWarning,0825.3,4.99,000.00,027.6,026.5,000.0,036.1,029.0,14.8,0000.0,0003.48,0010.61,0002.14
2023-11-08 09:33:00,SystemResetWarning,0825.3,5.00,000.00,027.6,026.5,000.0,036.1,029.0,14.8,0000.0,0003.47,0010.90,0002.11
2023-11-08 09:34:00,SystemResetWarning,0825.3,5.00,000.00,027.6,026.5,000.0,036.1,029.0,14.8,0000.0,0003.49,0011.39,0002.11
2023-11-08 09:35:00,SystemResetWarning,0825.2,5.00,000.00,027.6,026.4,000.0,036.0,029.0,14.8,0000.0,0003.49,0011.09,0002.10
2023-11-08 09:36:00,SystemResetWarning,0825.2,5.01,000.00,027.6,026.5,000.0,036.0,029.0,14.8,0000.0,0003.47,0011.83,0002.10
2023-11-08 09:37:00,SystemResetWarning,0825.2,5.00,000.00,027.6,026.4,000.0,036.0,029.0,14.8,0000.0,0003.48,0012.19,0002.11
2023-11-08 09:38:00,SystemResetWarning,0825.2,5.00,000.00,027.6,026.4,000.0,036.0,029.0,14.8,0000.0,0003.48,0012.19,0002.12
2023-11-08 09:39:00,SystemResetWarning,0825.2,5.00,000.00,027.6,026.4,000.0,036.0,029.0,14.8,0000.0,0003.48,0012.47,0002.12
2023-11-08 09:40:00,SystemResetWarning,0825.2,5.00,000.00,027.6,026.4,000.0,036.0,028.9,14.8,0000.0,0003.47,0012.63,0002.11
2023-11-08 09:41:00,SystemResetWarning,0825.2,5.01,000.00,027.6,026.4,000.0,036.0,028.9,14.7,0000.0,0003.48,0012.24,0002.13
2023-11-08 09:42:00,SystemResetWarning,0825.2,5.00,000.00,027.6,026.4,000.0,036.0,028.9,14.5,0000.0,0003.47,0011.78,0002.14
2023-11-08 09:43:00,SystemResetWarning,0825.2,5.00,000.00,027.6,026.4,000.0,036.0,029.0,14.3,0000.0,0003.43,0011.28,0002.12
2023-11-08 09:44:00,SystemResetWarning,0825.2,5.00,000.00,027.6,026.4,000.0,036.0,029.0,14.1,0000.0,0003.38,0009.97,0002.12
2023-11-08 09:45:00,SystemResetWarning,0825.2,5.00,000.00,027.6,026.4,000.0,036.0,029.0,14.1,0000.0,0003.31,0009.37,0002.10
2023-11-08 09:46:00,SystemResetWarning,0825.3,5.00,000.00,027.6,026.4,000.0,036.0,029.0,14.2,0000.0,0003.27,0009.20,0002.06
2023-11-08 09:47:00,SystemResetWarning,0825.3,4.99,000.00,027.6,026.4,000.0,036.0,029.0,14.1,0000.0,0003.21,0008.29,0002.01
2023-11-08 09:48:00,SystemResetWarning,0825.3,5.00,000.00,027.5,026.4,000.0,036.0,029.0,14.2,0000.0,0003.10,0007.65,0001.94
2023-11-08 09:49:00,SystemResetWarning,0825.3,5.00,000.00,027.5,026.4,000.0,036.0,029.0,14.1,0000.0,0002.97,0007.36,0001.89
2023-11-08 09:50:00,SystemResetWarning,0825.3,5.00,000.00,027.5,026.4,000.0,036.0,028.9,14.0,0000.0,0002.85,0006.91,0001.85
2023-11-08 09:51:00,SystemResetWarning,0825.3,5.00,000.00,027.5,026.4,000.0,036.0,028.9,14.1,0000.0,0002.71,0006.44,0001.81
2023-11-08 09:52:00,SystemResetWarning,0825.3,5.00,000.00,027.5,026.4,000.0,036.0,028.9,14.0,0000.0,0002.63,0006.31,0001.76
2023-11-08 09:53:00,SystemResetWarning,0825.3,5.00,000.00,027.5,026.4,000.0,036.0,028.9,14.0,0000.0,0002.51,0006.79,0001.72
2023-11-08 09:54:00,SystemResetWarning,0825.3,5.00,000.00,027.5,026.4,000.0,036.0,028.9,14.0,0000.0,0002.39,0007.79,0001.69
2023-11-08 09:55:00,SystemResetWarning,0825.3,5.00,000.00,027.5,026.4,000.0,036.0,028.9,14.0,0000.0,0002.34,0007.78,0001.64
2023-11-08 09:56:00,SystemResetWarning,0825.3,5.00,000.00,027.5,026.4,000.0,036.0,028.9,14.1,0000.0,0002.41,0008.10,0001.63
2023-11-08 09:57:00,SystemResetWarning,0825.3,5.00,000.00,027.5,026.4,000.0,036.0,028.9,14.0,0000.0,0002.40,0007.89,0001.61
2023-11-08 09:58:00,SystemResetWarning,0825.3,4.99,000.00,027.5,026.4,000.0,036.0,028.9,14.0,0000.0,0002.40,0007.96,0001.60
2023-11-08 09:59:00,SystemResetWarning,0825.2,5.00,000.00,027.5,026.5,000.0,035.9,028.9,14.0,0000.0,0002.47,0008.14,0001.60
